• In Uzbekistan
  • List of Countries
  • For 7 days
  • Water Temperature
  • Satellite Maps
  • Weather Map
  • Weather Widgets
  • user-avatar
    Login

    Hourly Weather Salzburg

    Today, 11 December, Tuesday

    Time Temperature Precipitation Wind Pressure Humidity
    00:00 -8°C° 1.1 mm 3 mps 622 mmHg 95%
    01:00 -8°C° 0 mm 2 mps 622 mmHg 94%
    02:00 -8°C° 0.4 mm 2 mps 622 mmHg 94%
    03:00 -9°C° 0.4 mm 3 mps 622 mmHg 93%
    04:00 -9°C° 0.4 mm 3 mps 622 mmHg 93%
    05:00 -9°C° 0.5 mm 3 mps 622 mmHg 93%
    06:00 -9°C° 0.5 mm 3 mps 623 mmHg 93%
    07:00 -10°C° 0.5 mm 3 mps 623 mmHg 93%
    08:00 -9°C° 0.4 mm 3 mps 623 mmHg 92%
    09:00 -9°C° 0.4 mm 3 mps 623 mmHg 91%
    10:00 -9°C° 0.4 mm 3 mps 623 mmHg 90%
    11:00 -9°C° 0.4 mm 3 mps 623 mmHg 88%
    12:00 -8°C° 0.4 mm 3 mps 623 mmHg 87%
    13:00 -9°C° 0.4 mm 4 mps 623 mmHg 85%
    14:00 -8°C° 0.3 mm 3 mps 623 mmHg 87%
    15:00 -9°C° 0.3 mm 3 mps 623 mmHg 89%
    16:00 -8°C° 0.3 mm 2 mps 623 mmHg 90%
    17:00 -8°C° 0.3 mm 2 mps 623 mmHg 91%
    18:00 -9°C° 0.3 mm 2 mps 623 mmHg 92%
    19:00 -9°C° 0.3 mm 2 mps 624 mmHg 92%
    20:00 -10°C° 0.2 mm 2 mps 623 mmHg 92%
    21:00 -10°C° 0.2 mm 2 mps 623 mmHg 92%
    22:00 -10°C° 0.2 mm 2 mps 623 mmHg 92%
    23:00 -12°C° 0.1 mm 2 mps 623 mmHg 91%

    Tomorrow, 12 December, Wednesday

    Time Temperature Precipitation Wind Pressure Humidity
    00:00 -12°C° 0.1 mm 2 mps 623 mmHg 90%
    01:00 -12°C° 0.1 mm 2 mps 623 mmHg 90%
    02:00 -13°C° 0.1 mm 2 mps 623 mmHg 89%
    03:00 -13°C° 0.1 mm 2 mps 623 mmHg 89%
    04:00 -13°C° 0.1 mm 2 mps 623 mmHg 88%
    05:00 -13°C° 0.1 mm 2 mps 623 mmHg 88%
    06:00 -13°C° 0.1 mm 2 mps 623 mmHg 88%
    07:00 -13°C° 0.1 mm 2 mps 623 mmHg 88%
    08:00 -12°C° 0.2 mm 2 mps 623 mmHg 88%
    09:00 -10°C° 0.2 mm 2 mps 624 mmHg 88%
    10:00 -10°C° 0.2 mm 2 mps 624 mmHg 87%
    11:00 -9°C° 0.2 mm 2 mps 624 mmHg 87%
    12:00 -7°C° 0.2 mm 1 mps 624 mmHg 86%
    13:00 -6°C° 0.2 mm 1 mps 624 mmHg 85%
    14:00 -7°C° 0.1 mm 1 mps 623 mmHg 88%
    15:00 -8°C° 0.1 mm 1 mps 623 mmHg 91%
    16:00 -9°C° 0.1 mm 1 mps 623 mmHg 93%
    17:00 -10°C° 0 mm 1 mps 623 mmHg 94%
    18:00 -10°C° 0 mm 1 mps 623 mmHg 94%
    19:00 -11°C° 0 mm 1 mps 622 mmHg 94%
    20:00 -12°C° 0 mm 1 mps 622 mmHg 93%
    21:00 -12°C° 0 mm 1 mps 622 mmHg 92%
    22:00 -13°C° 0 mm 1 mps 622 mmHg 92%
    23:00 -13°C° 0 mm 1 mps 622 mmHg 90%

    Day after tomorrow, 13 December, Thursday

    Time Temperature Precipitation Wind Pressure Humidity
    00:00 -13°C° 0 mm 1 mps 621 mmHg 89%
    01:00 -13°C° 0 mm 1 mps 621 mmHg 88%
    02:00 -14°C° 0 mm 1 mps 621 mmHg 88%
    03:00 -14°C° 0 mm 1 mps 621 mmHg 88%
    04:00 -14°C° 0 mm 1 mps 620 mmHg 88%
    05:00 -14°C° 0 mm 1 mps 620 mmHg 88%
    06:00 -14°C° 0 mm 1 mps 620 mmHg 89%
    07:00 -14°C° 0 mm 1 mps 620 mmHg 89%
    08:00 -13°C° 0 mm 1 mps 620 mmHg 88%
    09:00 -14°C° 0 mm 2 mps 620 mmHg 86%
    10:00 -12°C° 0 mm 2 mps 621 mmHg 85%
    11:00 -10°C° 0 mm 2 mps 621 mmHg 83%
    12:00 -9°C° 0 mm 2 mps 621 mmHg 81%
    13:00 -8°C° 0 mm 2 mps 621 mmHg 79%
    14:00 -9°C° 0 mm 2 mps 621 mmHg 83%
    15:00 -10°C° 0 mm 2 mps 620 mmHg 86%
    16:00 -10°C° 0 mm 2 mps 620 mmHg 90%
    17:00 -12°C° 0 mm 2 mps 620 mmHg 90%
    18:00 -13°C° 0 mm 2 mps 620 mmHg 90%
    19:00 -14°C° 0 mm 2 mps 619 mmHg 91%
    20:00 -14°C° 0 mm 2 mps 620 mmHg 90%
    21:00 -15°C° 0 mm 2 mps 620 mmHg 90%
    22:00 -13°C° 0 mm 1 mps 620 mmHg 89%
    23:00 -13°C° 0 mm 1 mps 620 mmHg 89%

    14 December, Friday

    Time Temperature Precipitation Wind Pressure Humidity
    00:00 -13°C° 0 mm 1 mps 620 mmHg 88%
    01:00 -13°C° 0 mm 1 mps 620 mmHg 88%
    02:00 -13°C° 0 mm 1 mps 620 mmHg 88%
    03:00 -13°C° 0 mm 1 mps 619 mmHg 87%
    04:00 -13°C° 0 mm 1 mps 619 mmHg 87%
    05:00 -13°C° 0 mm 1 mps 619 mmHg 87%
    06:00 -14°C° 0 mm 1 mps 619 mmHg 86%
    07:00 -14°C° 0 mm 1 mps 619 mmHg 86%
    08:00 -12°C° 0 mm 1 mps 620 mmHg 84%
    09:00 -11°C° 0 mm 1 mps 621 mmHg 83%
    10:00 -9°C° 0 mm 1 mps 621 mmHg 82%
    11:00 -8°C° 0 mm 1 mps 622 mmHg 80%
    12:00 -7°C° 0 mm 1 mps 622 mmHg 78%
    13:00 -6°C° 0 mm 1 mps 622 mmHg 76%
    14:00 -7°C° 0 mm 1 mps 622 mmHg 81%
    15:00 -9°C° 0 mm 1 mps 621 mmHg 86%
    16:00 -10°C° 0 mm 1 mps 621 mmHg 92%
    17:00 -11°C° 0 mm 1 mps 621 mmHg 91%
    18:00 -12°C° 0 mm 1 mps 621 mmHg 90%
    19:00 -12°C° 0 mm 1 mps 622 mmHg 89%
    20:00 -13°C° 0 mm 1 mps 622 mmHg 86%
    21:00 -13°C° 0 mm 1 mps 622 mmHg 83%
    22:00 -13°C° 0 mm 1 mps 622 mmHg 80%
    23:00 -13°C° 0 mm 1 mps 622 mmHg 78%

    15 December, Saturday

    Time Temperature Precipitation Wind Pressure Humidity
    00:00 -13°C° 0 mm 1 mps 622 mmHg 77%
    01:00 -13°C° 0 mm 1 mps 622 mmHg 75%
    02:00 -13°C° 0 mm 1 mps 623 mmHg 75%
    03:00 -14°C° 0 mm 1 mps 623 mmHg 75%
    04:00 -14°C° 0 mm 1 mps 623 mmHg 75%
    05:00 -14°C° 0 mm 1 mps 623 mmHg 76%
    06:00 -14°C° 0 mm 1 mps 623 mmHg 76%
    07:00 -16°C° 0 mm 2 mps 623 mmHg 77%
    08:00 -13°C° 0 mm 1 mps 624 mmHg 76%
    09:00 -11°C° 0 mm 1 mps 625 mmHg 76%
    10:00 -10°C° 0 mm 1 mps 626 mmHg 76%
    11:00 -9°C° 0 mm 1 mps 626 mmHg 74%
    12:00 -7°C° 0 mm 1 mps 626 mmHg 72%
    13:00 -6°C° 0 mm 1 mps 626 mmHg 71%
    14:00 -8°C° 0 mm 1 mps 626 mmHg 75%
    15:00 -9°C° 0 mm 1 mps 626 mmHg 80%
    16:00 -10°C° 0 mm 1 mps 625 mmHg 85%
    17:00 -11°C° 0 mm 1 mps 625 mmHg 82%
    18:00 -11°C° 0 mm 1 mps 625 mmHg 79%
    19:00 -12°C° 0 mm 1 mps 625 mmHg 76%
    20:00 -12°C° 0 mm 1 mps 625 mmHg 73%
    21:00 -14°C° 0 mm 2 mps 626 mmHg 70%
    22:00 -13°C° 0 mm 2 mps 626 mmHg 67%
    23:00 -13°C° 0 mm 2 mps 625 mmHg 65%

    16 December, Sunday

    Time Temperature Precipitation Wind Pressure Humidity
    00:00 -13°C° 0 mm 2 mps 625 mmHg 63%
    01:00 -13°C° 0 mm 2 mps 625 mmHg 62%
    02:00 -12°C° 0 mm 2 mps 625 mmHg 61%
    03:00 -10°C° 0 mm 2 mps 625 mmHg 61%
    04:00 -9°C° 0 mm 2 mps 625 mmHg 60%
    05:00 -7°C° 0.1 mm 1 mps 626 mmHg 64%
    06:00 -6°C° 0.1 mm 1 mps 626 mmHg 67%
    07:00 -6°C° 0.1 mm 1 mps 626 mmHg 70%
    08:00 -4°C° 0.4 mm 1 mps 626 mmHg 74%
    09:00 -3°C° 0.4 mm 1 mps 626 mmHg 79%
    10:00 -2°C° 0.4 mm 1 mps 627 mmHg 83%
    11:00 -1°C° 0.7 mm 1 mps 626 mmHg 86%
    12:00 -1°C° 0.7 mm 1 mps 626 mmHg 88%
    13:00 0°C° 0.7 mm 1 mps 626 mmHg 90%
    14:00 0°C° 0.7 mm 1 mps 626 mmHg 91%
    15:00 0°C° 0.7 mm 1 mps 626 mmHg 92%
    16:00 0°C° 0.7 mm 1 mps 626 mmHg 93%
    17:00 0°C° 0.9 mm 1 mps 626 mmHg 93%
    18:00 0°C° 0.9 mm 1 mps 626 mmHg 93%
    19:00 0°C° 0.9 mm 1 mps 626 mmHg 93%
    20:00 0°C° 0.6 mm 1 mps 626 mmHg 92%
    21:00 +1°C° 0.6 mm 1 mps 626 mmHg 92%
    22:00 +1°C° 0.6 mm 1 mps 626 mmHg 92%
    23:00 +1°C° 0.2 mm 1 mps 626 mmHg 92%
    Show more